Monroe, LA

2:26 AM CDT on July 24, 2017 (GMT -0500)
Monroe Regional

Weather History for KMLU - May, 2014

Change the Weather History Date:

Thursday, May 1, 2014

  Actual Average Record
Temperature  
Mean Temperature 57 °F 70 °F  
Max Temperature 72 °F 82 °F 91 °F (1987)
Min Temperature 41 °F 58 °F 41 °F (2014)
Degree Days  
Heating Degree Days 8 1  
Month to date heating degree days 8 1  
Since 1 July heating degree days 2824 2225  
Cooling Degree Days 0 6  
Month to date cooling degree days 0 6  
Year to date cooling degree days 88 153  
Growing Degree Days 6 (Base 50)    
Moisture  
Dew Point 41 °F    
Average Humidity 63    
Maximum Humidity 100    
Minimum Humidity 26    
Precipitation  
Precipitation 0.00 in 0.16 in 4.34 in (1954)
Month to date precipitation 0.00 0.16  
Year to date precipitation 17.15 19.02  
Snow  
Snow 0.00 in - - ()
Month to date snowfall 0.0  
Since 1 July snowfall 0.5  
Snow Depth 0.00 in    
Sea Level Pressure  
Sea Level Pressure 30.09 in    
Wind  
Wind Speed 4 mph (West)    
Max Wind Speed 17 mph    
Max Gust Speed 22 mph    
Visibility 10 miles    
Events      
T = Trace of Precipitation, MM = Missing Value Source: NWS Daily Summary

Daily Weather History Graph

Daily Weather History Graph

Search for Another Location

Airport or City:

Trip Planner

Search our weather history database for the weather conditions in past years. The results will help you decide how hot, cold, wet, or windy it might be!

Date:

Astronomy

May. 01, 2014 Rise Set
Actual Time 6:21 AM CDT 7:49 PM CDT
Civil Twilight 5:55 AM CDT 8:15 PM CDT
Nautical Twilight 5:24 AM CDT 8:47 PM CDT
Astronomical Twilight 4:51 AM CDT 9:19 PM CDT
Moon 8:12 AM CDT (5/1) 10:19 PM CDT (5/1)
Length of Visible Light 14h 20m
Length of Day
13h 28m
Waxing Crescent, 7% of the Moon is Illuminated
May 1
Waxing Crescent
May 6
First Quarter
May 14
Full
May 21
Last Quarter
May 28
New

Hourly Weather History & Observations

Time (CDT) Temp. Windchill Dew Point Humidity Pressure Visibility Wind Dir Wind Speed Gust Speed Precip Events Conditions
12:53 AM 45.0 °F - 43.0 °F 93% 30.13 in 9.0 mi Calm Calm - N/A   Clear
1:53 AM 46.0 °F - 44.1 °F 93% 30.13 in 10.0 mi Calm Calm - N/A   Clear
2:53 AM 45.0 °F 43.5 °F 44.1 °F 97% 30.12 in 10.0 mi South 3.5 mph - N/A   Clear
3:53 AM 42.1 °F - 41.0 °F 96% 30.12 in 8.0 mi Calm Calm - N/A   Clear
4:53 AM 43.0 °F 40.3 °F 42.1 °F 97% 30.12 in 10.0 mi South 4.6 mph - N/A   Clear
5:53 AM 43.0 °F - 41.0 °F 93% 30.12 in 10.0 mi Calm Calm - N/A   Clear
6:53 AM 44.1 °F - 42.1 °F 93% 30.13 in 10.0 mi Calm Calm - N/A   Clear
7:53 AM 48.0 °F - 46.0 °F 93% 30.14 in 10.0 mi South 3.5 mph - N/A   Clear
8:53 AM 55.0 °F - 48.9 °F 80% 30.14 in 6.0 mi SSW 3.5 mph - N/A   Haze
9:53 AM 64.0 °F - 42.1 °F 45% 30.14 in 10.0 mi West 8.1 mph - N/A   Clear
10:53 AM 66.0 °F - 37.0 °F 34% 30.13 in 10.0 mi WNW 12.7 mph 19.6 mph N/A   Clear
11:53 AM 68.0 °F - 35.1 °F 30% 30.12 in 10.0 mi NW 5.8 mph 17.3 mph N/A   Clear
12:53 PM 69.1 °F - 33.1 °F 26% 30.10 in 10.0 mi NW 10.4 mph - N/A   Clear
1:53 PM 70.0 °F - 36.0 °F 29% 30.08 in 10.0 mi Variable 4.6 mph - N/A   Clear
2:53 PM 71.1 °F - 37.0 °F 29% 30.05 in 10.0 mi West 6.9 mph 16.1 mph N/A   Clear
3:53 PM 70.0 °F - 37.0 °F 30% 30.02 in 10.0 mi Variable 6.9 mph - N/A   Clear
4:53 PM 71.1 °F - 37.9 °F 30% 30.01 in 10.0 mi NW 5.8 mph - N/A   Clear
5:53 PM 69.1 °F - 37.0 °F 31% 30.01 in 10.0 mi WNW 6.9 mph - N/A   Clear
6:53 PM 66.9 °F - 37.0 °F 33% 30.01 in 10.0 mi West 6.9 mph - N/A   Clear
7:53 PM 63.0 °F - 46.0 °F 54% 30.03 in 10.0 mi Calm Calm - N/A   Clear
8:53 PM 57.9 °F - 46.0 °F 65% 30.04 in 10.0 mi Calm Calm - N/A   Clear
9:53 PM 57.0 °F - 46.9 °F 69% 30.05 in 10.0 mi Calm Calm - N/A   Clear
10:53 PM 53.1 °F - 46.0 °F 77% 30.06 in 10.0 mi Calm Calm - N/A   Clear
11:53 PM 53.1 °F - 46.9 °F 80% 30.05 in 10.0 mi Calm Calm - N/A   Clear